Change the Weather History Date:

Tuesday, September 17, 2013

  Actual Average (KDSM) Record (KDSM)
Temperature  
Mean Temperature 60 °F 65 °F  
Max Temperature 66 °F 76 °F 95 °F (1925)
Min Temperature 53 °F 55 °F 37 °F (1901)
Degree Days  
Heating Degree Days 6 3  
Month to date heating degree days 28  
Since 1 July heating degree days 34  
Cooling Degree Days 0 3  
Month to date cooling degree days 85  
Year to date cooling degree days 1024  
Growing Degree Days 10 (Base 50)    
Moisture  
Dew Point 57 °F    
Average Humidity 93    
Maximum Humidity 100    
Minimum Humidity 77    
Precipitation  
Precipitation 0.25 in 0.10 in 1.52 in (1919)
Month to date precipitation 1.82  
Year to date precipitation 28.54  
Snow  
Snow 0.00 in 0.00 in - ()
Month to date snowfall 0.0  
Since 1 July snowfall 0.0  
Since 1 September snowfall 0.0  
Snow Depth -    
Sea Level Pressure  
Sea Level Pressure 30.12 in    
Wind  
Wind Speed 6 mph (SE)    
Max Wind Speed 13 mph    
Max Gust Speed 18 mph    
Visibility 5 miles    
Events Rain    
T = Trace of Precipitation, MM = Missing Value Source: NWS Daily Summary

Daily Weather History Graph

Daily Weather History Graph

Search for Another Location

Airport or City:

Trip Planner

Search our weather history database for the weather conditions in past years. The results will help you decide how hot, cold, wet, or windy it might be!

Date:

Astronomy

Sep. 17, 2013 Rise Set
Actual Time 6:56 AM CDT 7:19 PM CDT
Civil Twilight 6:28 AM CDT 7:47 PM CDT
Nautical Twilight 5:56 AM CDT 8:20 PM CDT
Astronomical Twilight 5:22 AM CDT 8:53 PM CDT
Moon 6:07 PM CDT (9/17) 4:51 AM CDT (9/17)
Length of Visible Light 13h 18m
Length of Day
12h 22m
Waxing Gibbous, 96% of the Moon is Illuminated
Sep 17
Waxing Gibbous
Sep 19
Full
Sep 26
Last Quarter
Oct 4
New
Oct 11
First Quarter

Hourly Weather History & Observations

Time (CDT) Temp. Dew Point Humidity Pressure Visibility Wind Dir Wind Speed Gust Speed Precip Events Conditions
12:15 AM 55.4 °F 51.8 °F 88% 30.26 in 10.0 mi Calm Calm - N/A   Clear
12:35 AM 55.4 °F 51.8 °F 88% 30.26 in 10.0 mi Calm Calm - N/A   Clear
12:55 AM 55.4 °F 51.8 °F 88% 30.25 in 10.0 mi Calm Calm - N/A   Clear
1:15 AM 55.4 °F 51.8 °F 88% 30.25 in 10.0 mi Calm Calm - N/A   Clear
1:35 AM 55.4 °F 51.8 °F 88% 30.25 in 10.0 mi ESE 4.6 mph - N/A   Clear
1:55 AM 55.4 °F 51.8 °F 88% 30.25 in 10.0 mi Calm Calm - N/A   Clear
2:15 AM 55.4 °F 51.8 °F 88% 30.24 in 10.0 mi ESE 4.6 mph - N/A   Clear
2:35 AM 57.2 °F 50.0 °F 77% 30.24 in - ESE 4.6 mph - N/A   Clear
2:55 AM 57.2 °F 50.0 °F 77% 30.24 in 10.0 mi ESE 5.8 mph - N/A   Mostly Cloudy
3:15 AM 57.2 °F 50.0 °F 77% 30.23 in 10.0 mi SE 5.8 mph - N/A   Mostly Cloudy
3:35 AM 57.2 °F 51.8 °F 82% 30.22 in 10.0 mi ESE 5.8 mph - N/A   Partly Cloudy
3:55 AM 57.2 °F 51.8 °F 82% 30.21 in 10.0 mi SE 8.1 mph - N/A   Light Drizzle
4:15 AM 57.2 °F 51.8 °F 82% 30.21 in 10.0 mi SE 6.9 mph - N/A   Overcast
4:35 AM 57.2 °F 50.0 °F 77% 30.21 in 10.0 mi SE 6.9 mph - N/A   Overcast
4:55 AM 57.2 °F 51.8 °F 82% 30.21 in 10.0 mi SE 6.9 mph - N/A   Overcast
5:15 AM 55.4 °F 51.8 °F 88% 30.22 in 10.0 mi SE 4.6 mph - N/A   Light Drizzle
5:35 AM 55.4 °F 51.8 °F 88% 30.22 in 5.0 mi SE 4.6 mph - N/A Rain Light Rain
5:55 AM 55.4 °F 51.8 °F 88% 30.21 in 4.0 mi ESE 6.9 mph - 0.02 in   Light Drizzle
6:15 AM 53.6 °F 53.6 °F 100% 30.21 in 4.0 mi ESE 6.9 mph - N/A Rain Light Rain
6:35 AM 53.6 °F 53.6 °F 100% 30.21 in 2.0 mi SSE 5.8 mph - N/A Rain Rain
6:55 AM 53.6 °F 53.6 °F 100% 30.21 in 2.5 mi SE 8.1 mph - 0.08 in Rain Rain
7:15 AM 53.6 °F 53.6 °F 100% 30.20 in 3.0 mi ESE 9.2 mph - N/A Rain Light Rain
7:35 AM 53.6 °F 53.6 °F 100% 30.20 in 3.0 mi SE 6.9 mph 13.8 mph N/A Rain Light Rain
7:55 AM 55.4 °F 53.6 °F 94% 30.20 in 2.0 mi SE 6.9 mph - 0.03 in Rain Light Rain
8:15 AM 55.4 °F 53.6 °F 94% 30.20 in 3.0 mi SE 8.1 mph - N/A Rain Light Rain
8:35 AM 55.4 °F 53.6 °F 94% 30.20 in 5.0 mi SE 8.1 mph - N/A   Light Drizzle
8:55 AM 55.4 °F 53.6 °F 94% 30.19 in 3.0 mi SE 9.2 mph 15.0 mph 0.03 in Rain Light Rain
9:15 AM 55.4 °F 53.6 °F 94% 30.19 in 1.0 mi SE 6.9 mph - N/A Rain Light Rain
9:35 AM 55.4 °F 55.4 °F 100% 30.19 in 1.5 mi SE 8.1 mph - N/A Rain Light Rain
9:55 AM 55.4 °F 55.4 °F 100% 30.18 in 1.5 mi SE 9.2 mph - 0.04 in   Overcast
10:15 AM 55.4 °F 55.4 °F 100% 30.18 in 1.5 mi ESE 9.2 mph - N/A   Light Drizzle
10:35 AM 55.4 °F 55.4 °F 100% 30.18 in 4.0 mi SE 6.9 mph - N/A   Overcast
10:55 AM 55.4 °F 55.4 °F 100% 30.17 in 1.2 mi SE 10.4 mph - 0.04 in   Light Drizzle
11:15 AM 55.4 °F 55.4 °F 100% 30.16 in 2.0 mi SE 11.5 mph 18.4 mph N/A   Light Drizzle
11:35 AM 55.4 °F 55.4 °F 100% 30.16 in 4.0 mi SE 10.4 mph - N/A   Overcast
11:55 AM 57.2 °F 55.4 °F 94% 30.15 in - SE 9.2 mph - 0.01 in   Overcast
12:15 PM 57.2 °F 55.4 °F 94% 30.14 in 6.0 mi SE 10.4 mph - N/A   Overcast
12:35 PM 57.2 °F 55.4 °F 94% 30.13 in 6.0 mi SE 11.5 mph - N/A   Overcast
12:55 PM 57.2 °F 57.2 °F 100% 30.13 in 6.0 mi SE 11.5 mph - N/A   Overcast
1:15 PM 59.0 °F 57.2 °F 94% 30.12 in 6.0 mi SSE 8.1 mph 15.0 mph N/A   Overcast
1:35 PM 59.0 °F 57.2 °F 94% 30.11 in 6.0 mi SE 8.1 mph 13.8 mph N/A   Overcast
1:55 PM 59.0 °F 57.2 °F 94% 30.10 in 6.0 mi SSE 5.8 mph - N/A   Overcast
2:15 PM 59.0 °F 57.2 °F 94% 30.09 in 6.0 mi SE 9.2 mph - N/A   Overcast
2:35 PM 59.0 °F 57.2 °F 94% 30.07 in 6.0 mi SE 10.4 mph - N/A   Overcast
2:55 PM 60.8 °F 59.0 °F 94% 30.07 in 7.0 mi SE 11.5 mph - N/A   Overcast
3:15 PM 60.8 °F 59.0 °F 94% 30.07 in 7.0 mi SE 9.2 mph - N/A   Overcast
3:35 PM 60.8 °F 59.0 °F 94% 30.06 in 7.0 mi SE 10.4 mph - N/A   Overcast
3:55 PM 60.8 °F 59.0 °F 94% 30.05 in 7.0 mi SSE 10.4 mph - N/A   Overcast
4:15 PM 60.8 °F 60.8 °F 100% 30.05 in 3.0 mi SE 10.4 mph - N/A   Overcast
4:35 PM 62.6 °F 60.8 °F 94% 30.04 in 4.0 mi SE 10.4 mph 16.1 mph N/A   Overcast
4:55 PM 62.6 °F 60.8 °F 94% 30.03 in 5.0 mi SE 12.7 mph - N/A   Overcast
5:15 PM 62.6 °F 60.8 °F 94% 30.03 in 6.0 mi SE 12.7 mph - N/A   Overcast
5:35 PM 62.6 °F 60.8 °F 94% 30.02 in 7.0 mi SE 11.5 mph - N/A   Overcast
5:55 PM 62.6 °F 60.8 °F 94% 30.02 in 6.0 mi SE 10.4 mph - N/A   Overcast
6:15 PM 62.6 °F 60.8 °F 94% 30.01 in 3.0 mi SSE 10.4 mph - N/A   Overcast
6:35 PM 62.6 °F 60.8 °F 94% 30.00 in 2.5 mi SE 11.5 mph - N/A   Overcast
6:55 PM 62.6 °F 60.8 °F 94% 30.00 in 1.8 mi SE 9.2 mph - N/A   Overcast
7:15 PM 62.6 °F 60.8 °F 94% 30.00 in 1.2 mi SE 9.2 mph - N/A   Overcast
7:35 PM 62.6 °F 62.6 °F 100% 30.00 in 1.5 mi SE 8.1 mph - N/A   Overcast
7:55 PM 62.6 °F 62.6 °F 100% 29.99 in 1.5 mi SE 5.8 mph - N/A   Overcast
8:15 PM 62.6 °F 62.6 °F 100% 30.00 in 1.2 mi SE 6.9 mph - N/A   Overcast
8:35 PM 62.6 °F 62.6 °F 100% 30.00 in 1.8 mi SE 8.1 mph - N/A   Overcast
8:55 PM 62.6 °F 62.6 °F 100% 30.00 in 2.5 mi SE 9.2 mph - N/A   Overcast
9:15 PM 64.4 °F 62.6 °F 94% 30.00 in 3.0 mi SSE 6.9 mph - N/A   Overcast
9:35 PM 64.4 °F 62.6 °F 94% 30.00 in 3.0 mi SSE 8.1 mph 15.0 mph N/A   Overcast
9:55 PM 64.4 °F 62.6 °F 94% 29.99 in 4.0 mi SSE 11.5 mph - N/A   Overcast
10:15 PM 64.4 °F 64.4 °F 100% 30.00 in 5.0 mi SSE 10.4 mph - N/A   Overcast
10:35 PM 64.4 °F 64.4 °F 100% 30.00 in 6.0 mi SSE 8.1 mph - N/A   Overcast
10:55 PM 66.2 °F 64.4 °F 94% 30.00 in 6.0 mi SSE 10.4 mph - N/A   Overcast
11:15 PM 66.2 °F 64.4 °F 94% 30.00 in 7.0 mi SSE 11.5 mph 18.4 mph N/A   Overcast
11:35 PM 66.2 °F 64.4 °F 94% 30.00 in 7.0 mi SSE 8.1 mph 17.3 mph N/A   Overcast
11:55 PM 66.2 °F 64.4 °F 94% 30.00 in 7.0 mi SSE 9.2 mph - N/A   Overcast